Location: Lombard
(41.8800°N, 88.0080°W)
Time: 23:57:55
(UTC-05:00)

Tiros 1 - Pass Details

Date: 27 January 2023
Orbit: 628 x 662 km, 48.4° (Epoch: 20 March)

Event Time Altitude Azimuth Distance (km) Brightness Sun altitude
Rises 01:31:54 0° 199° (SSW) 2,899 - -60.2°
Reaches altitude 10° 01:34:39 10° 183° (S) 2,000 - -59.8°
Maximum altitude 01:38:05 21° 135° (SE) 1,424 - -59.3°
Drops below altitude 10° 01:41:33 10° 86° (E) 2,022 - -58.8°
Sets 01:44:21 0° 71° (ENE) 2,942 - -58.4°
